Pacific Princess — ZCDS3 — position and weather

sailwx.info

Track history (hours):
 
Tides and Currents Weather Stations Pressure Air Temp Water Temp Dewpoint Dewpoint Depression Visibility Wind Speed Wind Dir Waves Ship Positions

Pacific Princess (Bermuda)

Last reported at 2017-Nov-23 09:28 UTC. Time now 2017-Nov-23 09:43 UTC.
Position N 45°26' E 012°19'.

Length 180.5 m; beam 25.6 m; draft 6 m.

Type: Passenger vessel. MMSI: 310504000.

Date/timePositionNaut miles runAvg speedWind from/ knotsBaromVisibWave heightAir tempDewpointWater temp
2017-Nov-23 09:28N 45°26' E 012°19'0 0.0
2017-Nov-23 08:58N 45°26' E 012°19'0 0.0
2017-Nov-23 08:25N 45°26' E 012°19'0 0.0
2017-Nov-23 07:58N 45°26' E 012°19'0 0.0
2017-Nov-23 07:28N 45°26' E 012°19'0 0.0
2017-Nov-23 06:58N 45°26' E 012°19'0 0.0
2017-Nov-23 06:28N 45°26' E 012°19'0 0.0
2017-Nov-23 05:58N 45°26' E 012°19'0 0.0
2017-Nov-23 05:28N 45°26' E 012°19'0 0.0
2017-Nov-23 04:58N 45°26' E 012°19'0 0.4
2017-Nov-23 04:30N 45°26' E 012°19'2 3.8
2017-Nov-23 04:00N 45°26' E 012°21'3 6.8
2017-Nov-23 03:30N 45°25' E 012°26'510.2
2017-Nov-23 03:00N 45°22' E 012°32'611.9
2017-Nov-23 02:30N 45°16' E 012°33'712.8
2017-Nov-23 01:59N 45°12' E 012°40'612.8
2017-Nov-23 01:30N 45°08' E 012°47'713.0
2017-Nov-23 01:00N 45°02' E 012°52'612.3
2017-Nov-23 00:30N 44°58' E 012°57'712.9
2017-Nov-23 00:00N 44°55' E 013°05'612.7
2017-Nov-22 23:30N 44°56' E 013°14'612.0
2017-Nov-22 23:00N 44°56' E 013°23'815.4
2017-Nov-22 22:30N 44°50' E 013°30'917.8
2017-Nov-22 22:00N 44°43' E 013°37'816.9
2017-Nov-22 21:30N 44°39' E 013°48'917.5
2017-Nov-22 21:00N 44°39' E 013°60'917.4
2017-Nov-22 20:30N 44°47' E 014°06'917.7
2017-Nov-22 20:00N 44°55' E 014°11'14 1.0
2017-Nov-22 06:00N 44°42' E 014°06'6716.8 210 / 121020.210.8 15.011.316.0
2017-Nov-22 02:00N 43°42' E 014°48'164 6.9 190 / 121020.910.8 15.5 7.5
2017-Nov-21 02:00N 42°42' E 018°18'14128.1 210 / 21020.710.8 13.2-1.118.0
2017-Nov-20 21:00N 40°24' E 018°54'12715.9 030 / 251018.610.8 13.0 1.318.0
2017-Nov-20 13:00N 38°24' E 019°48'11416.3 310 / 341014.610.8 15.5 2.021.0
2017-Nov-20 06:00N 36°48' E 021°06'6513.0 280 / 261011.410.8 18.0 9.521.0
2017-Nov-20 01:00N 36°18' E 022°18'13316.5 260 / 171011.810.8 16.012.417.0
2017-Nov-19 16:55N 37°12' E 024°50'716.8
2017-Nov-19 16:30N 37°15' E 024°57'816.4
2017-Nov-19 16:00N 37°20' E 025°05'916.9
2017-Nov-19 15:30N 37°28' E 025°11'713.3
2017-Nov-19 15:00N 37°28' E 025°19'0 0.2
2017-Nov-19 14:25N 37°28' E 025°19'0 0.0
2017-Nov-19 13:58N 37°28' E 025°19'0 0.0
2017-Nov-19 13:28N 37°28' E 025°19'0 0.0
2017-Nov-19 12:58N 37°28' E 025°19'0 0.0
2017-Nov-19 12:28N 37°28' E 025°19'0 0.0
2017-Nov-19 11:58N 37°28' E 025°19'0 0.0
2017-Nov-19 11:28N 37°28' E 025°19'0 0.0
2017-Nov-19 10:58N 37°28' E 025°19'0 0.0
2017-Nov-19 10:28N 37°28' E 025°19'0 0.0
2017-Nov-19 09:58N 37°28' E 025°19'0 0.0
2017-Nov-19 09:25N 37°28' E 025°19'0 0.0
2017-Nov-19 08:58N 37°28' E 025°19'0 0.0
2017-Nov-19 08:28N 37°28' E 025°19'0 0.0
2017-Nov-19 07:58N 37°28' E 025°19'0 0.0
2017-Nov-19 07:28N 37°28' E 025°19'0 0.0
2017-Nov-19 06:58N 37°28' E 025°19'0 0.0
2017-Nov-19 06:28N 37°28' E 025°19'0 0.0
2017-Nov-19 05:52N 37°28' E 025°19'0 0.0
2017-Nov-19 05:25N 37°28' E 025°19'0 0.0
2017-Nov-19 04:58N 37°28' E 025°19'0 0.5
2017-Nov-19 04:30N 37°28' E 025°19'4 8.0
2017-Nov-19 04:00N 37°28' E 025°14'611.1
2017-Nov-19 03:30N 37°30' E 025°08'510.6
2017-Nov-19 03:00N 37°32' E 025°02'10 9.8
2017-Nov-19 02:01N 37°32' E 024°49'011.1
2017-Nov-19 02:00N 37°32' E 024°49'510.5
2017-Nov-19 01:30N 37°29' E 024°44'816.0
2017-Nov-19 01:00N 37°24' E 024°36'44 6.2 290 / 71010.910.8 16.812.721.0
2017-Nov-18 18:00N 37°37' E 023°43'510.2
2017-Nov-18 17:30N 37°42' E 023°42'510.4
2017-Nov-18 17:00N 37°46' E 023°38'510.1
2017-Nov-18 16:30N 37°51' E 023°36'510.0
2017-Nov-18 16:01N 37°56' E 023°37'1 2.7
2017-Nov-18 15:30N 37°56' E 023°38'0 0.0
2017-Nov-18 15:00N 37°56' E 023°38'0 0.0
2017-Nov-18 14:30N 37°56' E 023°38'0 0.0
2017-Nov-18 14:00N 37°56' E 023°38'0 0.0
2017-Nov-18 13:30N 37°56' E 023°38'0 0.0
2017-Nov-18 12:57N 37°56' E 023°38'0 0.0
2017-Nov-18 12:27N 37°56' E 023°38'0 0.0
2017-Nov-18 12:00N 37°56' E 023°38'0 0.0
2017-Nov-18 11:30N 37°56' E 023°38'0 0.0
2017-Nov-18 11:00N 37°56' E 023°38'0 0.0
2017-Nov-18 10:30N 37°56' E 023°38'0 0.0
2017-Nov-18 10:00N 37°56' E 023°38'0 0.0
2017-Nov-18 09:24N 37°56' E 023°38'0 0.0
2017-Nov-18 09:00N 37°56' E 023°38'0 0.0
2017-Nov-18 08:27N 37°56' E 023°38'0 0.0
2017-Nov-18 08:00N 37°56' E 023°38'0 0.0
2017-Nov-18 07:30N 37°56' E 023°38'0 0.0
2017-Nov-18 07:00N 37°56' E 023°38'0 0.0
2017-Nov-18 06:30N 37°56' E 023°38'0 0.0
2017-Nov-18 06:00N 37°56' E 023°38'0 0.0
2017-Nov-18 05:30N 37°56' E 023°38'0 0.0
2017-Nov-18 05:00N 37°56' E 023°38'1 2.4
2017-Nov-18 04:30N 37°56' E 023°37'3 6.0
2017-Nov-18 04:00N 37°53' E 023°38'612.1
2017-Nov-18 03:31N 37°48' E 023°41'12513.1
2017-Nov-17 18:00N 38°48' E 026°00'166 4.1 050 / 211014.8 5.4 16.012.420.0
2017-Nov-16 01:00N 36°12' E 027°12'145 6.1 120 / 141018.710.8 19.016.520.0
2017-Nov-15 01:00N 36°18' E 024°12'5819.3 110 / 161015.310.8 18.018.022.0
2017-Nov-14 22:00N 36°18' E 023°00'19811.6 170 / 251013.410.8 20.015.822.0
2017-Nov-14 05:00N 38°24' E 019°48'5212.9 100 / 251006.910.8 17.013.520.0
2017-Nov-14 01:00N 39°12' E 019°24'3912.9 190 / 171004.3 5.4 17.013.518.0
2017-Nov-13 22:00N 39°48' E 019°06'7312.1 150 / 321003.8 5.4 18.016.320.0
2017-Nov-13 16:00N 41°00' E 018°54'19 9.3 150 / 34999.5 5.4 17.012.519.0
2017-Nov-13 14:00N 41°18' E 018°48'   150 / 31999.310.8 18.213.318.0
Track history (hours):
 
Tides and Currents Weather Stations Pressure Air Temp Water Temp Dewpoint Dewpoint Depression Visibility Wind Speed Wind Dir Waves Ship Positions

Pacific Princess (Bermuda)

Last reported at 2017-Nov-23 09:28 UTC. Time now 2017-Nov-23 09:43 UTC.
Position N 45°26' E 012°19'.

Length 180.5 m; beam 25.6 m; draft 6 m.

Type: Passenger vessel. MMSI: 310504000.

Date/timePositionNaut miles runAvg speedWind from/ knotsBaromVisibWave heightAir tempDewpointWater temp
2017-Nov-23 09:28N 45°26' E 012°19'0 0.0
2017-Nov-23 08:58N 45°26' E 012°19'0 0.0
2017-Nov-23 08:25N 45°26' E 012°19'0 0.0
2017-Nov-23 07:58N 45°26' E 012°19'0 0.0
2017-Nov-23 07:28N 45°26' E 012°19'0 0.0
2017-Nov-23 06:58N 45°26' E 012°19'0 0.0
2017-Nov-23 06:28N 45°26' E 012°19'0 0.0
2017-Nov-23 05:58N 45°26' E 012°19'0 0.0
2017-Nov-23 05:28N 45°26' E 012°19'0 0.0
2017-Nov-23 04:58N 45°26' E 012°19'0 0.4
2017-Nov-23 04:30N 45°26' E 012°19'2 3.8
2017-Nov-23 04:00N 45°26' E 012°21'3 6.8
2017-Nov-23 03:30N 45°25' E 012°26'510.2
2017-Nov-23 03:00N 45°22' E 012°32'611.9
2017-Nov-23 02:30N 45°16' E 012°33'712.8
2017-Nov-23 01:59N 45°12' E 012°40'612.8
2017-Nov-23 01:30N 45°08' E 012°47'713.0
2017-Nov-23 01:00N 45°02' E 012°52'612.3
2017-Nov-23 00:30N 44°58' E 012°57'712.9
2017-Nov-23 00:00N 44°55' E 013°05'612.7
2017-Nov-22 23:30N 44°56' E 013°14'612.0
2017-Nov-22 23:00N 44°56' E 013°23'815.4
2017-Nov-22 22:30N 44°50' E 013°30'917.8
2017-Nov-22 22:00N 44°43' E 013°37'816.9
2017-Nov-22 21:30N 44°39' E 013°48'917.5
2017-Nov-22 21:00N 44°39' E 013°60'917.4
2017-Nov-22 20:30N 44°47' E 014°06'917.7
2017-Nov-22 20:00N 44°55' E 014°11'14 1.0
2017-Nov-22 06:00N 44°42' E 014°06'6716.8 210 / 121020.210.8 15.011.316.0
2017-Nov-22 02:00N 43°42' E 014°48'164 6.9 190 / 121020.910.8 15.5 7.5
2017-Nov-21 02:00N 42°42' E 018°18'14128.1 210 / 21020.710.8 13.2-1.118.0
2017-Nov-20 21:00N 40°24' E 018°54'12715.9 030 / 251018.610.8 13.0 1.318.0
2017-Nov-20 13:00N 38°24' E 019°48'11416.3 310 / 341014.610.8 15.5 2.021.0
2017-Nov-20 06:00N 36°48' E 021°06'6513.0 280 / 261011.410.8 18.0 9.521.0
2017-Nov-20 01:00N 36°18' E 022°18'13316.5 260 / 171011.810.8 16.012.417.0
2017-Nov-19 16:55N 37°12' E 024°50'716.8
2017-Nov-19 16:30N 37°15' E 024°57'816.4
2017-Nov-19 16:00N 37°20' E 025°05'916.9
2017-Nov-19 15:30N 37°28' E 025°11'713.3
2017-Nov-19 15:00N 37°28' E 025°19'0 0.2
2017-Nov-19 14:25N 37°28' E 025°19'0 0.0
2017-Nov-19 13:58N 37°28' E 025°19'0 0.0
2017-Nov-19 13:28N 37°28' E 025°19'0 0.0
2017-Nov-19 12:58N 37°28' E 025°19'0 0.0
2017-Nov-19 12:28N 37°28' E 025°19'0 0.0
2017-Nov-19 11:58N 37°28' E 025°19'0 0.0
2017-Nov-19 11:28N 37°28' E 025°19'0 0.0
2017-Nov-19 10:58N 37°28' E 025°19'0 0.0
2017-Nov-19 10:28N 37°28' E 025°19'0 0.0
2017-Nov-19 09:58N 37°28' E 025°19'0 0.0
2017-Nov-19 09:25N 37°28' E 025°19'0 0.0
2017-Nov-19 08:58N 37°28' E 025°19'0 0.0
2017-Nov-19 08:28N 37°28' E 025°19'0 0.0
2017-Nov-19 07:58N 37°28' E 025°19'0 0.0
2017-Nov-19 07:28N 37°28' E 025°19'0 0.0
2017-Nov-19 06:58N 37°28' E 025°19'0 0.0
2017-Nov-19 06:28N 37°28' E 025°19'0 0.0
2017-Nov-19 05:52N 37°28' E 025°19'0 0.0
2017-Nov-19 05:25N 37°28' E 025°19'0 0.0
2017-Nov-19 04:58N 37°28' E 025°19'0 0.5
2017-Nov-19 04:30N 37°28' E 025°19'4 8.0
2017-Nov-19 04:00N 37°28' E 025°14'611.1
2017-Nov-19 03:30N 37°30' E 025°08'510.6
2017-Nov-19 03:00N 37°32' E 025°02'10 9.8
2017-Nov-19 02:01N 37°32' E 024°49'011.1
2017-Nov-19 02:00N 37°32' E 024°49'510.5
2017-Nov-19 01:30N 37°29' E 024°44'816.0
2017-Nov-19 01:00N 37°24' E 024°36'44 6.2 290 / 71010.910.8 16.812.721.0
2017-Nov-18 18:00N 37°37' E 023°43'510.2
2017-Nov-18 17:30N 37°42' E 023°42'510.4
2017-Nov-18 17:00N 37°46' E 023°38'510.1
2017-Nov-18 16:30N 37°51' E 023°36'510.0
2017-Nov-18 16:01N 37°56' E 023°37'1 2.7
2017-Nov-18 15:30N 37°56' E 023°38'0 0.0
2017-Nov-18 15:00N 37°56' E 023°38'0 0.0
2017-Nov-18 14:30N 37°56' E 023°38'0 0.0
2017-Nov-18 14:00N 37°56' E 023°38'0 0.0
2017-Nov-18 13:30N 37°56' E 023°38'0 0.0
2017-Nov-18 12:57N 37°56' E 023°38'0 0.0
2017-Nov-18 12:27N 37°56' E 023°38'0 0.0
2017-Nov-18 12:00N 37°56' E 023°38'0 0.0
2017-Nov-18 11:30N 37°56' E 023°38'0 0.0
2017-Nov-18 11:00N 37°56' E 023°38'0 0.0
2017-Nov-18 10:30N 37°56' E 023°38'0 0.0
2017-Nov-18 10:00N 37°56' E 023°38'0 0.0
2017-Nov-18 09:24N 37°56' E 023°38'0 0.0
2017-Nov-18 09:00N 37°56' E 023°38'0 0.0
2017-Nov-18 08:27N 37°56' E 023°38'0 0.0
2017-Nov-18 08:00N 37°56' E 023°38'0 0.0
2017-Nov-18 07:30N 37°56' E 023°38'0 0.0
2017-Nov-18 07:00N 37°56' E 023°38'0 0.0
2017-Nov-18 06:30N 37°56' E 023°38'0 0.0
2017-Nov-18 06:00N 37°56' E 023°38'0 0.0
2017-Nov-18 05:30N 37°56' E 023°38'0 0.0
2017-Nov-18 05:00N 37°56' E 023°38'1 2.4
2017-Nov-18 04:30N 37°56' E 023°37'3 6.0
2017-Nov-18 04:00N 37°53' E 023°38'612.1
2017-Nov-18 03:31N 37°48' E 023°41'12513.1
2017-Nov-17 18:00N 38°48' E 026°00'166 4.1 050 / 211014.8 5.4 16.012.420.0
2017-Nov-16 01:00N 36°12' E 027°12'145 6.1 120 / 141018.710.8 19.016.520.0
2017-Nov-15 01:00N 36°18' E 024°12'5819.3 110 / 161015.310.8 18.018.022.0
2017-Nov-14 22:00N 36°18' E 023°00'19811.6 170 / 251013.410.8 20.015.822.0
2017-Nov-14 05:00N 38°24' E 019°48'5212.9 100 / 251006.910.8 17.013.520.0
2017-Nov-14 01:00N 39°12' E 019°24'3912.9 190 / 171004.3 5.4 17.013.518.0
2017-Nov-13 22:00N 39°48' E 019°06'7312.1 150 / 321003.8 5.4 18.016.320.0
2017-Nov-13 16:00N 41°00' E 018°54'19 9.3 150 / 34999.5 5.4 17.012.519.0
2017-Nov-13 14:00N 41°18' E 018°48'   150 / 31999.310.8 18.213.318.0

Dump ship's entire track history